Station BDRN4 - 8539094 - Burlington, Delaware River, NJ Image indicating link to RSS feed of recent meteorological observations for station BDRN4


Conditions at BDRN4 as of
(10:36 am EDT)
1436 GMT on 04/15/2024:
     

Click on the graph icon in the table below to see a time series plot of the last five days of that observation.

5-day plot - Wind Direction Wind Direction (WDIR):WSW ( 250 deg true )
5-day plot - Wind Speed Wind Speed (WSPD): 5.1 kts
5-day plot - Wind Gust Wind Gust (GST): 6.0 kts
5-day plot - Atmospheric Pressure Atmospheric Pressure (PRES):29.84 in
5-day plot - Air Temperature Air Temperature (ATMP): 68.2 °F
5-day plot - Water Temperature Water Temperature (WTMP): 53.4 °F
5-day plot - Wind Speed at 10 Meters Wind Speed at 10 meters (WSPD10M): 5.8 kts
5-day plot - Wind Speed at 20 Meters Wind Speed at 20 meters (WSPD20M): 5.8 kts
5-day plot -  Wind Speed, Wind Gust and Atmospheric Pressure Combined plot of Wind Speed, Gust, and Air Pressure
NOS Water Level Observation Network Water Level
Previous observations
TIME
(EDT)
5-day plot - Wind Direction
WDIR
 
5-day plot - Wind Speed
WSPD
kts
5-day plot - Wind Gust
GST
kts
5-day plot - Wave Height
WVHT
ft
5-day plot - Dominant Wave Period
DPD
sec
5-day plot - Average Wave Period
APD
sec
5-day plot - Mean Wave Direction
MWD
 
5-day plot - Atmospheric Pressure
PRES
in
5-day plot - Pressure Tendency
PTDY
in
5-day plot - Air Temperature
ATMP
°F
5-day plot - Water Temperature
WTMP
°F
5-day plot - Dew Point
DEWP
°F
5-day plot - Salinity
SAL
psu
5-day plot - Visibility
VIS
nmi
5-day plot - Tide (above MLLW)
TIDE
ft
2024-04-15 10:30 am W 1.9 4.1----29.84- 67.1 53.4----
2024-04-15 10:24 amWSW 4.1 5.1----29.84- 67.3 53.4----
2024-04-15 10:18 am W 4.1 5.1----29.84- 68.7 53.4----
2024-04-15 10:12 am W 2.9 6.0----29.84- 68.7 53.4----
2024-04-15 10:06 amWSW 5.1 7.0----29.84- 67.8 53.4----
2024-04-15 10:00 amWSW 4.1 6.0----29.84+0.06 68.0 53.4----
2024-04-15 09:54 amWSW 5.1 7.0----29.84- 68.4 53.4----
2024-04-15 09:48 amWSW 5.1 6.0----29.84- 67.1 53.4----
2024-04-15 09:42 amWSW 5.1 7.0----29.84- 66.7 53.4----
2024-04-15 09:36 am W 6.0 8.0----29.84- 65.7 53.4----
2024-04-15 09:30 am W 6.0 8.0----29.84- 66.2 53.4----
2024-04-15 09:24 amWNW 8.0 11.1----29.84- 66.4 53.4----
2024-04-15 09:18 am W 8.9 9.9----29.83- 64.8 53.4----
2024-04-15 09:12 amWSW 8.0 11.1----29.83- 64.9 53.4----
2024-04-15 09:06 am W 8.0 11.1----29.83- 64.6 53.4----
2024-04-15 09:00 am W 8.0 11.1----29.83+0.09 64.9 53.4----
2024-04-15 08:54 am W 9.9 12.0----29.83- 64.6 53.4----
2024-04-15 08:48 am W 8.0 11.1----29.83- 64.4 53.4----
2024-04-15 08:42 am W 7.0 8.0----29.83- 63.7 53.4----
2024-04-15 08:36 am W 7.0 8.0----29.83- 62.1 53.4----
2024-04-15 08:30 am W 7.0 8.0----29.83- 62.4 53.4----
2024-04-15 08:24 amWSW 7.0 8.9----29.83- 61.3 53.4----
2024-04-15 08:18 am W 6.0 7.0----29.82- 60.6 53.4----
2024-04-15 08:12 am W 5.1 5.1----29.82- 61.3 53.4----
2024-04-15 08:06 amWSW 5.1 6.0----29.81- 61.9 53.4----
2024-04-15 08:00 amWSW 5.1 6.0----29.81+0.09 61.3 53.4----
2024-04-15 07:54 amWSW 4.1 5.1----29.81- 61.3 53.4----
2024-04-15 07:48 amWSW 4.1 5.1----29.81- 58.6 53.4----
2024-04-15 07:42 am W 5.1 5.1----29.81- 58.5 53.4----
2024-04-15 07:36 am W 4.1 5.1----29.80- 58.8 53.4----
2024-04-15 07:30 am W 4.1 4.1----29.80- 58.5 53.4----
2024-04-15 07:24 am W 4.1 5.1----29.80- 58.6 53.4----
2024-04-15 07:18 am W 4.1 5.1----29.80- 58.1 53.4----
2024-04-15 07:12 amWSW 4.1 4.1----29.79- 57.7 53.4----
2024-04-15 07:06 am W 2.9 4.1----29.79- 57.2 53.4----
2024-04-15 07:00 am W 2.9 2.9----29.78+0.05 57.7 53.4----
2024-04-15 06:54 am W 2.9 4.1----29.78- 57.4 53.4----
2024-04-15 06:48 am W 2.9 4.1----29.77- 57.7 53.4----
2024-04-15 06:42 amWSW 2.9 2.9----29.77- 57.9 53.2----
2024-04-15 06:36 amWSW 1.9 2.9----29.76- 58.8 53.2----
2024-04-15 06:30 amWNW 1.9 2.9----29.76- 59.4 53.2----
2024-04-15 06:24 am W 1.9 4.1----29.76- 59.4 53.2----
2024-04-15 06:18 amWSW 1.9 2.9----29.75- 59.9 53.2----
2024-04-15 06:12 am W 1.0 1.9----29.75- 59.7 53.2----
2024-04-15 06:06 am- 0.0 1.0----29.75- 59.7 53.2----
2024-04-15 06:00 am N 1.0 1.0----29.75+0.02 60.1 53.2----
2024-04-15 05:54 am- 0.0 1.9----29.74- 59.5 53.2----
2024-04-15 05:48 am W 1.9 2.9----29.73- 60.1 53.2----
2024-04-15 05:42 amWSW 1.9 2.9----29.74- 59.9 53.2----
2024-04-15 05:36 amWNW 4.1 5.1----29.74- 60.1 53.2----
2024-04-15 05:30 am W 4.1 5.1----29.73- 60.1 53.2----
2024-04-15 05:24 am W 2.9 4.1----29.73- 61.3 53.2----
2024-04-15 05:18 amWSW 2.9 5.1----29.73- 61.5 53.2----
2024-04-15 05:12 amWSW 4.1 5.1----29.73- 61.5 53.2----
2024-04-15 05:06 amWSW 4.1 4.1----29.73- 62.2 53.2----
2024-04-15 05:00 amWSW 4.1 4.1----29.73+0.00 62.2 53.2----
2024-04-15 04:54 amWSW 4.1 5.1----29.73- 62.4 53.2----
2024-04-15 04:48 amWSW 5.1 6.0----29.73- 62.2 53.2----
2024-04-15 04:42 am W 6.0 6.0----29.73- 62.1 53.2----
2024-04-15 04:36 am W 6.0 6.0----29.73- 62.4 53.2----
2024-04-15 04:30 amWSW 6.0 7.0----29.73- 62.4 53.2----
2024-04-15 04:24 am W 7.0 8.0----29.73- 61.0 53.2----
2024-04-15 04:18 am W 6.0 7.0----29.73- 62.8 53.2----
2024-04-15 04:12 amWSW 5.1 7.0----29.72- 63.0 53.2----
2024-04-15 04:06 amWSW 5.1 6.0----29.72- 63.0 53.2----
2024-04-15 04:00 amWSW 5.1 6.0----29.72-0.04 62.4 53.2----
2024-04-15 03:54 amWSW 5.1 7.0----29.72- 62.6 53.2----
2024-04-15 03:48 amWSW 5.1 8.9----29.72- 63.0 53.2----
2024-04-15 03:42 amWSW 6.0 8.0----29.72- 62.8 53.2----
2024-04-15 03:36 amWSW 5.1 7.0----29.72- 62.8 53.2----
2024-04-15 03:30 am SW 5.1 6.0----29.72- 62.1 53.2----
2024-04-15 03:24 am SW 5.1 7.0----29.72- 61.9 53.2----
2024-04-15 03:18 am SW 6.0 8.0----29.72- 62.1 53.2----
2024-04-15 03:12 am SW 4.1 7.0----29.72- 62.4 53.2----
2024-04-15 03:06 amWSW 5.1 8.0----29.72- 63.0 53.2----
2024-04-15 03:00 amWSW 7.0 8.0----29.72-0.04 63.1 53.2----
2024-04-15 02:54 am W 4.1 6.0----29.73- 62.6 53.2----
2024-04-15 02:48 am SW 6.0 7.0----29.73- 62.1 53.2----
2024-04-15 02:42 am SW 5.1 7.0----29.73- 62.2 53.2----
2024-04-15 02:36 am SW 5.1 7.0----29.73- 61.7 53.2----
2024-04-15 02:30 amWSW 5.1 5.1----29.73- 61.3 53.2----
2024-04-15 02:24 am W 4.1 5.1----29.73- 61.3 53.2----
2024-04-15 02:18 amWSW 2.9 4.1----29.74- 60.6 53.2----
2024-04-15 02:12 am W 2.9 5.1----29.74- 61.2 53.2----
2024-04-15 02:06 amWSW 1.9 4.1----29.73- 60.6 53.2----
2024-04-15 02:00 amWNW 1.9 2.9----29.73-0.01 61.0 53.2----
2024-04-15 01:54 amWSW 1.9 4.1----29.73- 61.7 53.2----
2024-04-15 01:48 amWSW 5.1 5.1----29.74- 60.4 53.2----
2024-04-15 01:42 am W 6.0 8.0----29.75- 60.4 53.2----
2024-04-15 01:36 am W 6.0 7.0----29.76- 60.6 53.2----
2024-04-15 01:30 am W 5.1 8.9----29.75- 62.8 53.1----
2024-04-15 01:24 amWSW 7.0 9.9----29.75- 62.6 53.1----
2024-04-15 01:18 amWSW 8.0 13.0----29.75- 62.4 53.1----
2024-04-15 01:12 am W 13.0 17.1----29.77- 62.1 53.1----
2024-04-15 01:06 am W 12.0 15.0----29.78- 63.7 53.2----
2024-04-15 01:00 amWNW 2.9 8.9----29.77-0.05 61.7 53.2----
2024-04-15 12:54 am W 7.0 13.0----29.78- 61.3 53.2----
2024-04-15 12:48 am W 9.9 14.0----29.78- 61.7 53.2----
2024-04-15 12:42 am W 8.9 11.1----29.78- 59.5 53.2----
2024-04-15 12:36 am W 6.0 8.0----29.77- 61.3 53.2----
2024-04-15 12:30 am W 7.0 8.0----29.77- 62.1 53.2----
2024-04-15 12:24 am W 2.9 6.0----29.75- 61.5 53.2----
2024-04-15 12:18 am W 7.0 8.0----29.77- 60.6 53.4----
2024-04-15 12:12 am W 8.0 9.9----29.77- 61.7 53.4----
2024-04-15 12:06 amWSW 8.0 9.9----29.77- 62.1 53.4----
2024-04-15 12:00 am W 8.0 8.9----29.76+0.09 61.5 53.4----
2024-04-14 11:54 pm W 5.1 6.0----29.76- 62.4 53.4----
2024-04-14 11:48 pm NW 4.1 7.0----29.75- 62.2 53.4----
2024-04-14 11:42 pm SW 2.9 4.1----29.74- 62.8 53.4----
2024-04-14 11:36 pm W 1.9 2.9----29.74-- 53.4----
2024-04-14 11:30 pm SW 1.9 8.9----29.74-- 53.6----
2024-04-14 11:24 pm S 7.0 9.9----29.73-- 53.6----
2024-04-14 11:18 pmSSW 5.1 8.0----29.72-- 53.6----
2024-04-14 11:12 pm S 7.0 12.0----29.72-- 53.6----
2024-04-14 11:06 pmSSW 6.0 8.0----29.73-- 53.6----
2024-04-14 11:00 pm S 6.0 7.0----29.75+0.11- 53.6----
2024-04-14 10:54 pm S 5.1 7.0----29.75-- 53.8----
2024-04-14 10:48 pm S 5.1 7.0----29.75-- 53.8----
2024-04-14 10:42 pm S 7.0 8.0----29.75-- 53.8----
2024-04-14 10:36 pm S 6.0 7.0----29.77- 62.1 53.8----
2024-04-14 10:30 pm S 4.1 6.0----29.78- 62.2 53.8----
2024-04-14 10:24 pmWSW 2.9 4.1----29.79- 62.1 53.8----
2024-04-14 10:18 pm- 0.0 4.1----29.79- 62.4 54.0----
2024-04-14 10:12 pm N 1.0 6.0----29.80- 62.6 54.0----
2024-04-14 10:06 pm NW 5.1 13.0----29.82- 62.6 54.0----
2024-04-14 10:00 pm NW 4.1 8.9----29.82+0.19 63.1 54.0----
2024-04-14 09:54 pm NW 6.0 11.1----29.82- 63.7 54.0----
2024-04-14 09:48 pmNNW 7.0 14.0----29.81- 64.2 54.0----
2024-04-14 09:42 pm N 8.0 15.9----29.81- 65.3 54.1----
2024-04-14 09:36 pmNNW 8.9 17.1----29.81- 66.2 54.1----
2024-04-14 09:30 pmNNW 9.9 19.0----29.81- 67.3 54.1----
2024-04-14 09:24 pm NW 8.0 15.0----29.81- 69.6 54.1----
2024-04-14 09:18 pmNNW 7.0 15.0----29.79- 70.9 54.1----
2024-04-14 09:12 pmNNW 8.9 19.0----29.78- 70.3 54.1----
2024-04-14 09:06 pmWSW 12.0 19.0----29.68- 70.2 54.1----
2024-04-14 09:00 pm SW 12.0 15.9----29.67+0.02 70.2 54.1----
2024-04-14 08:54 pm SW 8.9 20.0----29.67- 70.3 54.1----
2024-04-14 08:48 pm SW 11.1 15.9----29.66- 70.5 54.1----
2024-04-14 08:42 pm SW 9.9 15.9----29.66- 70.3 54.1----
2024-04-14 08:36 pm SW 9.9 18.1----29.66-- 54.1----
2024-04-14 08:30 pmWSW 11.1 17.1----29.66-- 54.1----
2024-04-14 08:24 pmWSW 14.0 19.0----29.66-- 54.1----
2024-04-14 08:18 pmWSW 11.1 15.0----29.65-- 54.1----
2024-04-14 08:12 pm SW 14.0 21.0----29.65-- 54.1----
2024-04-14 08:06 pm SW 12.0 22.0----29.64-- 54.1----
2024-04-14 08:00 pm SW 11.1 17.1----29.64-0.03- 54.1----
2024-04-14 07:54 pm SW 11.1 20.0----29.63-- 54.1----
2024-04-14 07:48 pm SW 12.0 19.0----29.62-- 54.1----
2024-04-14 07:42 pm SW 11.1 22.9----29.62-- 54.1----
2024-04-14 07:36 pm-------29.62- 71.2 54.1----
2024-04-14 07:30 pm-------29.62- 71.8 54.1----
2024-04-14 07:24 pm-------29.62- 71.8 54.1----
2024-04-14 07:18 pm-------29.62- 72.1 54.1----
2024-04-14 07:12 pm-------29.62- 72.0 54.1----
2024-04-14 07:06 pm-------29.62- 72.1 54.1----
2024-04-14 07:00 pm-------29.63-0.06 72.1 54.0----
2024-04-14 06:54 pm-------29.63- 72.5 54.0----
2024-04-14 06:48 pm-------29.64- 72.5 54.0----
2024-04-14 06:42 pm-------29.64- 73.0 54.0----
2024-04-14 06:36 pmSSW 12.0 22.9----29.64- 72.9 54.0----
2024-04-14 06:30 pmSSW 12.0 27.0----29.64- 73.2 54.0----
2024-04-14 06:24 pm SW 8.0 15.0----29.65- 73.6 54.0----
2024-04-14 06:18 pm SW 12.0 21.0----29.64- 73.2 54.0----
2024-04-14 06:12 pm SW 14.0 22.0----29.65- 73.4 54.0----
2024-04-14 06:06 pm SW 13.0 25.1----29.65- 73.2 53.8----
2024-04-14 06:00 pm SW 15.0 25.1----29.65- 73.4 53.8----
2024-04-14 05:54 pm SW 12.0 21.0----29.65- 73.4 53.6----
2024-04-14 05:48 pmWSW 17.1 22.9----29.66- 73.4 53.6----
2024-04-14 05:42 pm SW 15.0 25.1----29.66- 73.4 53.4----
2024-04-14 05:36 pm SW 17.1 22.0----29.66-- 53.4----
2024-04-14 05:30 pm SW 21.0 32.1----29.66-- 53.4----
2024-04-14 05:24 pm SW 20.0 28.0----29.66-- 53.2----
2024-04-14 05:18 pmWSW 19.0 28.9----29.66-- 53.2----
2024-04-14 05:12 pmWSW 18.1 27.0----29.66-- 53.2----
2024-04-14 05:06 pm SW 14.0 22.9----29.66-- 53.2----
2024-04-14 05:00 pmWSW 17.1 22.9----29.67-0.12- 53.2----
2024-04-14 04:54 pmWSW 18.1 24.1----29.67-- 53.2----
2024-04-14 04:48 pm SW 14.0 22.9----29.67-- 53.2----
2024-04-14 04:42 pm SW 15.9 25.1----29.67-- 53.2----
2024-04-14 04:36 pm SW 15.0 26.0----29.68-- 53.2----
2024-04-14 04:30 pmWSW 22.0 28.0----29.68-- 53.1----
2024-04-14 04:24 pm SW 18.1 29.9----29.68-- 53.1----
2024-04-14 04:18 pmWSW 18.1 27.0----29.69-- 53.1----
2024-04-14 04:12 pmWSW 19.0 27.0----29.69-- 53.1----
2024-04-14 04:06 pm SW 15.0 22.9----29.69-- 53.1----
2024-04-14 04:00 pm SW 18.1 28.0----29.69-0.15- 53.1----
2024-04-14 03:54 pmSSW 14.0 25.1----29.69-- 53.1----
2024-04-14 03:48 pmWSW 15.9 22.0----29.70-- 53.1----
2024-04-14 03:42 pmSSW 12.0 26.0----29.70-- 53.1----
2024-04-14 03:36 pm SW 17.1 25.1------ 72.9 53.1----
2024-04-14 03:30 pm SW 15.9 26.0------ 72.1 53.1----
2024-04-14 03:24 pm SW 17.1 26.0------ 72.3 53.1----
2024-04-14 03:18 pmSSW 12.0 24.1------ 71.6 53.1----
2024-04-14 03:12 pm SW 15.9 26.0------ 72.1 53.1----
2024-04-14 03:06 pmSSW 14.0 26.0------ 72.0 53.2----
2024-04-14 03:00 pm SW 15.9 24.1------ 71.8 53.2----
2024-04-14 02:54 pm SW 15.9 27.0------ 71.4 53.2----
2024-04-14 02:48 pm SW 14.0 25.1------ 71.8 53.2----
2024-04-14 02:42 pm SW 15.9 22.0------ 70.9 53.4----
2024-04-14 02:36 pm SW 18.1 25.1----29.75- 70.9 53.4----
2024-04-14 02:30 pmSSW 11.1 20.0----29.76- 71.1 53.4----
2024-04-14 02:24 pm SW 15.9 22.9----29.76- 70.3 53.4----
2024-04-14 02:18 pm SW 13.0 22.9----29.77- 70.5 53.4----
2024-04-14 02:12 pm SW 14.0 24.1----29.77- 70.5 53.6----
2024-04-14 02:06 pm SW 14.0 22.0----29.78- 70.0 53.6----
2024-04-14 02:00 pm SW 12.0 15.9----29.78- 70.2 53.6----
2024-04-14 01:54 pmSSW 12.0 18.1----29.79- 69.6 53.6----
2024-04-14 01:48 pm SW 12.0 20.0----29.80- 69.6 53.6----
2024-04-14 01:42 pmSSW 11.1 19.0----29.80- 69.3 53.6----
2024-04-14 01:36 pmSSW 9.9 17.1----29.81- 69.8 53.8----
2024-04-14 01:30 pmWSW 12.0 15.9----29.82- 68.9 53.8----
2024-04-14 01:24 pmSSW 13.0 17.1----29.82- 68.7 53.8----
2024-04-14 01:18 pmSSW 11.1 18.1----29.83- 68.4 53.8----
2024-04-14 01:12 pmSSW 12.0 19.0----29.83- 67.8 53.8----
2024-04-14 01:06 pmWSW 13.0 19.0----29.83- 67.1 53.8----
2024-04-14 01:00 pm SW 12.0 19.0----29.84-0.11 67.3 53.8----
2024-04-14 12:54 pmWSW 12.0 18.1----29.85- 66.9 53.8----
2024-04-14 12:48 pm SW 11.1 18.1----29.86- 66.9 53.8----
2024-04-14 12:42 pmWSW 9.9 14.0----29.86- 66.2 53.8----
2024-04-14 12:36 pmWSW 11.1 18.1----29.87-------
2024-04-14 12:30 pmWSW 15.9 25.1----29.88-------
2024-04-14 12:24 pmWSW 11.1 18.1----29.88-------
2024-04-14 12:18 pmWSW 15.9 20.0----29.88-------
2024-04-14 12:12 pm SW 13.0 20.0----29.87-------
2024-04-14 12:06 pmWSW 12.0 15.0----29.88-------
2024-04-14 12:00 pm W 15.0 20.0----29.90-------
2024-04-14 11:54 am W 14.0 18.1----29.91-------
2024-04-14 11:48 am W 15.9 19.0----29.91-------
2024-04-14 11:42 am W 15.0 19.0----29.92-------
2024-04-14 11:36 amWSW 15.9 19.0------------
2024-04-14 11:30 am W 17.1 20.0------------
2024-04-14 11:24 am W 15.0 19.0------------
2024-04-14 11:18 am W 15.0 21.0------------
2024-04-14 11:12 amWSW 13.0 18.1------------
2024-04-14 11:06 am W 13.0 15.9------------
2024-04-14 11:00 am W 13.0 15.9------------
2024-04-14 10:54 am W 15.9 18.1------------